Location: Ahstedt
(52.2048°N, 10.1060°E)
Time: 23:55:16
(UTC+00:00)

CZ-4 R/B - Pass Details

Date: 18 January 2026
Orbit: 676 x 743 km, 98.7° (Epoch: 17 February)

Event Time Altitude Azimuth Distance (km) Brightness Sun altitude
Rises 04:50:16 0° 15° (NNE) 3,102 7.3 -22.1°
Reaches altitude 10° 04:52:31 10° 16° (NNE) 2,189 6.5 -21.7°
Maximum altitude 04:57:19 88° 104° (ESE) 724 3.8 -21.0°
Drops below altitude 10° 05:02:12 10° 196° (SSW) 2,215 6.3 -20.3°
Sets 05:04:29 0° 197° (SSW) 3,141 7.1 -19.9°
